Terminal Aerodrome Forecast
Issued by NWS

Home | Current Version | Previous Version | Text Only | Print | Product List | Glossary On
Versions: 1 2 3 4 5 6 7 8 9 10 11 12 13 14 15 16 17 18 19 20 21 22 23
000
FTUS45 KREV 282323
TAFTRK
TAF
KTRK 282323Z 2900/2924 24014G24KT P6SM FEW120 OVC180
     FM290400 21010KT P6SM BKN180 WS020/23035KT
     FM291000 21015G25KT P6SM SCT180
     FM291700 21025G35KT P6SM SCT100 SCT150
     FM292200 23018G28KT P6SM SCT110 BKN180=

USA.gov is the U.S. government's official web portal to all federal, state and local government web resources and services.